Regional Weather Roundup
Issued by NWS

Home | Current Version | Previous Version | Text Only | Print | Product List | Glossary On
Versions: 1 2 3 4 5 6 7 8 9 10 11 12 13 14 15 16 17 18 19 20 21 22 23 24 25 26 27
000
ASUS44 KLIX 272214
RWRLA
LOUISIANA WEATHER ROUNDUP
NATIONAL WEATHER SERVICE NEW ORLEANS LA
500 PM CDT THU JUL 27 2017

NOTE: "FAIR" INDICATES FEW OR NO CLOUDS BELOW 12,000 FEET WITH NO
      SIGNIFICANT WEATHER AND/OR OBSTRUCTIONS TO VISIBILITY.
      SKY/WX - SKY CONDITION AND SIGNIFICANT WEATHER.
      TMP - AIR TEMPERATURE.    DP   - DEWPOINT TEMPERATURE.
      RH  - RELATIVE HUMIDITY.  PRES - PRESSURE.
      HX  - HEAT INDEX.         WCI  - WIND CHILL INDEX.

*  THESE STATIONS ARE NOT NWS OR FAA STATIONS AND ARE NOT UNDER
   NWS QUALITY CONTROL.

LAZ040-048-061>063-065-066-069-272300-
SOUTHEAST LOUISIANA

CITY           SKY/WX    TMP DP  RH WIND       PRES   REMARKS
N.O. INTL ARPT FAIR      95  68  41 N7        29.98F HX  99
N.O. LAKEFRONT FAIR      92  73  53 W7        29.98F HX 100
N.O. DOWNTOWN*   N/A     95  68  41 VRB3        N/A  HX  99
RESERVE*       FAIR      96  68  40 NW5       29.98S HX 101
SLIDELL        FAIR      95  70  44 VRB3      29.97F HX 101
BATON ROUGE    FAIR      93  68  43 W7        29.98F HX  97
BOOTHVILLE     FAIR      92  73  53 NE5       29.99F HX 100
BELLE CHASSE   MOSUNNY   93  72  50 VRB5      29.97F HX 101
BOGALUSA*      FAIR      95  61  32 CALM      29.99F HX  95
GALLIANO*      FAIR      92  73  53 CALM      29.98F HX  99
NEW ROADS*     FAIR      92  68  45 W6        29.99F HX  96
GONZALES*      FAIR      93  70  46 SW3       29.97F HX  99
HAMMOND*       FAIR      97  59  28 N5        29.98F HX  96
HOUMA*         NOT AVBL
PORT FOURCHON* CLEAR     91  73  55 S8        29.99S HX 100

$$

LAZ041-044-053-054-272300-
SOUTHWEST LOUISIANA

CITY           SKY/WX    TMP DP  RH WIND       PRES   REMARKS
LAKE CHARLES   FAIR      92  73  53 SW8       29.98F HX 100
LAFAYETTE      FAIR      94  68  42 W6        29.99F HX  98
PATTERSON      FAIR      92  75  57 W8        29.99F HX 103
SALT POINT       N/A     92  67  43 VRB3      29.98F HX  95
NEW IBERIA     FAIR      93  69  45 SW3       29.99F HX  98
CHENAULT AIRPK MOSUNNY   93  73  52 SW8       29.98F HX 102

$$

LAZ027-028-272300-
CENTRAL LOUISIANA

CITY           SKY/WX    TMP DP  RH WIND       PRES   REMARKS
FORT POLK      FAIR      92  72  51 S6        29.97F HX  99
ALEXANDRIA INT FAIR      93  74  53 SW7       29.95F HX 103
ALEXANDRIA     FAIR      94  74  52 SW8       29.97F HX 104

$$

LAZ001-002-272300-
NORTHWEST LOUISIANA

CITY           SKY/WX    TMP DP  RH WIND       PRES   REMARKS
SHREVEPORT     PTSUNNY   95  74  50 S9        29.94F HX 105
BARKSDALE AFB  FAIR      95  73  48 S13       29.93F HX 104
DTN SHREVEPORT FAIR      95  72  47 SW8       29.94F HX 103

$$

LAZ014-016-272300-
NORTHEAST LOUISIANA

CITY           SKY/WX    TMP DP  RH WIND       PRES   REMARKS
MONROE         PTSUNNY   94  72  48 S7        29.95F HX 102
TALLULAH       FAIR      92  71  50 SW6       29.96F HX  98

$$





USA.gov is the U.S. government's official web portal to all federal, state and local government web resources and services.